This is the latest recevied weather packets stored in our database for station/object EA1FWM-12. If no packets are shown the sender has not sent any weather packets the latest 10 day(s).
| Time | Temp. | Humidity | Pressure | Rain* | Wind** | Luminosity | Snow |
|---|---|---|---|---|---|---|---|
| 1777420930 | 10.56° C | 79% | 1013.1 hPa | - | - | - | - |
| 1777420031 | 11.11° C | 78% | 1013.3 hPa | - | - | - | - |
| 1777419132 | 11.11° C | 78% | 1013.3 hPa | - | - | - | - |
| 1777418233 | 11.11° C | 78% | 1013.3 hPa | - | - | - | - |
| 1777417333 | 11.11° C | 77% | 1013.4 hPa | - | - | - | - |
| 1777416434 | 11.67° C | 77% | 1013.5 hPa | - | - | - | - |
| 1777415570 | 11.67° C | 76% | 1013.5 hPa | - | - | - | - |
| 1777415534 | 11.67° C | 76% | 1013.5 hPa | - | - | - | - |
| 1777414634 | 11.67° C | 75% | 1013.6 hPa | - | - | - | - |
| 1777413734 | 12.22° C | 75% | 1013.6 hPa | - | - | - | - |
| 1777412835 | 12.22° C | 74% | 1013.6 hPa | - | - | - | - |
| 1777411935 | 12.22° C | 74% | 1013.6 hPa | - | - | - | - |
| 1777411035 | 15° C | 73% | 1013.7 hPa | - | - | - | - |
| 1777410270 | 12.78° C | 72% | 1013.8 hPa | - | - | - | - |
| 1777409378 | 12.78° C | 71% | 1013.7 hPa | - | - | - | - |
| 1777408478 | 12.78° C | 71% | 1013.6 hPa | - | - | - | - |
| 1777407571 | 13.33° C | 70% | 1013.5 hPa | - | - | - | - |
| 1777406677 | 13.33° C | 69% | 1013.5 hPa | - | - | - | - |
| 1777404869 | 14.44° C | 68% | 1013.7 hPa | - | - | - | - |
| 1777403977 | 14.44° C | 68% | 1013.8 hPa | - | - | - | - |
| 1777403070 | 14.44° C | 68% | 1013.6 hPa | - | - | - | - |
| 1777401270 | 14.44° C | 69% | 1013.8 hPa | - | - | - | - |
| 1777400370 | 14.44° C | 69% | 1013.9 hPa | - | - | - | - |
| 1777399476 | 15° C | 68% | 1013.9 hPa | - | - | - | - |
| 1777398570 | 15° C | 67% | 1013.7 hPa | - | - | - | - |
* Rain since midnight (hover to see other rain measurements)
** Current wind speed in m/s (hover to see current wind gust speed)